This is the latest recevied weather packets stored in our database for station/object KB1QVF. If no packets are shown the sender has not sent any weather packets the latest 10 day(s).
| Time | Temp. | Humidity | Pressure | Rain* | Wind** | Luminosity | Snow |
|---|---|---|---|---|---|---|---|
| 1777633331 | 6.11° C | 90% | 1012.1 hPa | 0 mm | - | 30 W/m² | - |
| 1777633028 | 5.56° C | 91% | 1011.9 hPa | 0 mm | - | 48 W/m² | - |
| 1777632724 | 5° C | 92% | 1011.9 hPa | 0 mm | - | 54 W/m² | - |
| 1777632420 | 4.44° C | 91% | 1011.8 hPa | 0 mm | - | 42 W/m² | - |
| 1777632118 | 5° C | 91% | 1011.6 hPa | 0 mm | - | 23 W/m² | - |
| 1777631816 | 5° C | 91% | 1011.7 hPa | 0 mm | - | 22 W/m² | - |
| 1777631514 | 5° C | 92% | 1011.8 hPa | 0 mm | - | 24 W/m² | - |
| 1777631210 | 5° C | 92% | 1011.6 hPa | 0 mm | - | 19 W/m² | - |
| 1777630908 | 4.44° C | 93% | 1011.5 hPa | 0 mm | - | 21 W/m² | - |
| 1777630608 | 4.44° C | 92% | 1011.6 hPa | 0 mm | - | 15 W/m² | - |
| 1777630305 | 4.44° C | 92% | 1011.6 hPa | 0 mm | - | 13 W/m² | - |
| 1777630003 | 4.44° C | 92% | 1011.3 hPa | 0 mm | - | 11 W/m² | - |
| 1777629701 | 4.44° C | 92% | 1011.4 hPa | 0 mm | - | 9 W/m² | - |
| 1777629397 | 4.44° C | 91% | 1011.3 hPa | 0 mm | - | 7 W/m² | - |
| 1777629092 | 4.44° C | 91% | 1011.3 hPa | 0 mm | - | 5 W/m² | - |
| 1777628790 | 5° C | 91% | 1011.2 hPa | 0 mm | - | 3 W/m² | - |
| 1777628486 | 5° C | 91% | 1011.2 hPa | 0 mm | - | 2 W/m² | - |
| 1777628182 | 5° C | 90% | 1011.2 hPa | 0 mm | - | 1 W/m² | - |
| 1777627878 | 5° C | 90% | 1011.1 hPa | 0 mm | - | 0 W/m² | - |
| 1777627577 | 5° C | 89% | 1011.1 hPa | 0 mm | - | 0 W/m² | - |
| 1777627272 | 5.56° C | 89% | 1011 hPa | 0 mm | - | 0 W/m² | - |
| 1777626969 | 5.56° C | 88% | 1011.1 hPa | 0 mm | - | 0 W/m² | - |
| 1777626665 | 5.56° C | 89% | 1011 hPa | 0 mm | - | 0 W/m² | - |
| 1777626361 | 5.56° C | 89% | 1011.1 hPa | 0 mm | - | 0 W/m² | - |
| 1777626059 | 5.56° C | 88% | 1010.9 hPa | 0 mm | - | 0 W/m² | - |
* Rain latest hour (hover to see other rain measurements)
** Current wind speed in m/s (hover to see current wind gust speed)